QPF
0.00 0.00 0.00 0.00 0.00 0.01 0.01 0.01 0.01 0.02 0.02 0.02 0.02 0.03 0.02 0.02 0.02 0.02 0.02 0.03 0.02 0.04 0.04 0.04 0.04 0.03 0.04 0.04 0.04 0.04 0.03 0.03 0.03 0.02 0.02 0.01 0.01 0.02 0.02 0.02 0.01 0.02 0.03 0.02
0.00 0.00 0.00 0.00 0.01 0.01 0.01 0.01 0.01 0.01 0.02 0.01 0.01 0.02 0.04 0.03 0.02 0.02 0.01 0.02 0.02 0.03 0.04 0.04 0.04 0.03 0.02 0.03 0.03 0.02 0.02 0.01 0.02 0.03 0.03 0.02 0.01 0.01 0.02 0.03 0.02 0.01 0.02 0.03
0.00 0.00 0.00 0.00 0.01 0.01 0.02 0.01 0.01 0.01 0.01 0.01 0.02 0.03 0.06 0.04 0.02 0.02 0.03 0.04 0.03 0.03 0.03 0.03 0.02 0.01 0.02 0.02 0.02 0.02 0.01 0.01 0.01 0.01 0.01 0.02 0.02 0.02 0.02 0.02 0.02 0.03 0.03 0.03
0.00 0.01 0.01 0.01 0.02 0.02 0.01 0.01 0.01 0.01 0.01 0.01 0.02 0.04 0.06 0.09 0.11 0.07 0.04 0.03 0.02 0.02 0.04 0.04 0.03 0.02 0.02 0.02 0.02 0.02 0.01 0.01 0.01 0.01 0.01 0.01 0.01 0.01 0.02 0.02 0.02 0.02 0.02 0.02
0.00 0.01 0.01 0.01 0.02 0.02 0.01 0.01 0.02 0.02 0.01 0.01 0.01 0.03 0.09 0.09 0.08 0.05 0.02 0.01 0.01 0.01 0.02 0.05 0.05 0.05 0.03 0.03 0.03 0.03 0.03 0.02 0.02 0.02 0.01 0.01 0.01 0.01 0.01 0.02 0.02 0.02 0.01 0.01
0.00 0.01 0.01 0.01 0.01 0.02 0.01 0.02 0.02 0.02 0.02 0.02 0.02 0.03 0.05 0.03 0.02 0.02 0.02 0.01 0.01 0.02 0.01 0.02 0.02 0.03 0.03 0.04 0.04 0.04 0.03 0.03 0.02 0.02 0.01 0.01 0.01 0.01 0.01 0.01 0.01 0.02 0.02 0.02
0.01 0.01 0.01 0.01 0.01 0.02 0.03 0.04 0.02 0.02 0.02 0.03 0.05 0.07 0.05 0.03 0.03 0.02 0.01 0.01 0.01 0.01 0.01 0.01 0.01 0.02 0.02 0.02 0.03 0.03 0.02 0.02 0.02 0.02 0.01 0.01 0.01 0.01 0.02 0.02 0.03 0.03 0.04 0.04
0.02 0.02 0.02 0.01 0.01 0.02 0.03 0.02 0.01 0.01 0.01 0.01 0.02 0.03 0.04 0.04 0.03 0.02 0.01 0.01 0.00 0.00 0.00 0.01 0.01 0.01 0.02 0.01 0.01 0.01 0.02 0.02 0.02 0.02 0.01 0.01 0.01 0.01 0.02 0.03 0.03 0.05 0.06 0.06
0.02 0.02 0.03 0.02 0.03 0.02 0.02 0.02 0.02 0.03 0.02 0.01 0.01 0.02 0.02 0.03 0.03 0.02 0.01 0.01 0.00 0.00 0.00 0.01 0.01 0.01 0.01 0.02 0.02 0.03 0.03 0.04 0.03 0.02 0.02 0.02 0.03 0.03 0.02 0.02 0.04 0.07 0.08 0.09
0.02 0.03 0.03 0.02 0.02 0.03 0.03 0.02 0.03 0.07 0.07 0.04 0.02 0.02 0.02 0.02 0.02 0.02 0.01 0.01 0.01 0.00 0.00 0.00 0.00 0.01 0.01 0.01 0.01 0.02 0.03 0.04 0.04 0.04 0.03 0.03 0.04 0.04 0.04 0.04 0.07 0.07 0.06 0.05
0.02 0.03 0.04 0.04 0.03 0.03 0.03 0.03 0.03 0.04 0.06 0.06 0.04 0.03 0.02 0.02 0.02 0.02 0.01 0.01 0.01 0.01 0.01 0.01 0.01 0.01 0.01 0.01 0.01 0.01 0.02 0.03 0.04 0.05 0.04 0.04 0.05 0.06 0.06 0.06 0.05 0.04 0.03 0.02
0.03 0.04 0.04 0.03 0.02 0.02 0.02 0.03 0.05 0.05 0.05 0.06 0.04 0.03 0.03 0.03 0.02 0.02 0.02 0.01 0.01 0.01 0.02 0.03 0.02 0.02 0.02 0.01 0.01 0.01 0.02 0.02 0.02 0.03 0.04 0.04 0.04 0.04 0.05 0.05 0.04 0.04 0.03 0.03
0.04 0.04 0.04 0.02 0.02 0.02 0.03 0.03 0.05 0.05 0.06 0.07 0.06 0.04 0.03 0.02 0.02 0.02 0.03 0.02 0.02 0.02 0.02 0.02 0.01 0.01 0.01 0.01 0.01 0.01 0.01 0.02 0.02 0.03 0.03 0.03 0.03 0.04 0.05 0.05 0.04 0.03 0.02 0.02
0.03 0.05 0.07 0.05 0.04 0.02 0.03 0.03 0.03 0.02 0.03 0.03 0.04 0.03 0.02 0.02 0.02 0.02 0.02 0.02 0.02 0.01 0.01 0.01 0.01 0.01 0.02 0.02 0.02 0.02 0.02 0.02 0.02 0.02 0.01 0.02 0.02 0.02 0.02 0.02 0.02 0.03 0.03 0.04
0.03 0.05 0.08 0.08 0.07 0.04 0.03 0.02 0.02 0.02 0.02 0.02 0.02 0.03 0.02 0.02 0.02 0.02 0.03 0.03 0.03 0.02 0.02 0.02 0.02 0.02 0.02 0.02 0.02 0.02 0.02 0.02 0.02 0.01 0.01 0.01 0.01 0.01 0.01 0.01 0.01 0.02 0.03 0.03
0.05 0.04 0.06 0.09 0.10 0.10 0.10 0.08 0.06 0.06 0.06 0.05 0.04 0.03 0.03 0.03 0.03 0.03 0.03 0.04 0.04 0.03 0.02 0.02 0.02 0.01 0.02 0.02 0.01 0.02 0.02 0.02 0.02 0.01 0.01 0.01 0.01 0.01 0.01 0.01 0.01 0.02 0.01 0.02
0.07 0.05 0.04 0.05 0.07 0.08 0.09 0.09 0.08 0.09 0.11 0.12 0.10 0.06 0.04 0.04 0.04 0.04 0.04 0.05 0.04 0.03 0.03 0.03 0.02 0.02 0.01 0.01 0.01 0.01 0.01 0.02 0.02 0.01 0.01 0.01 0.02 0.02 0.02 0.02 0.01 0.01 0.02 0.03
0.08 0.07 0.06 0.06 0.09 0.08 0.07 0.07 0.05 0.07 0.13 0.16 0.14 0.13 0.10 0.07 0.04 0.04 0.03 0.03 0.03 0.03 0.03 0.03 0.02 0.02 0.03 0.03 0.03 0.02 0.02 0.02 0.02 0.02 0.02 0.02 0.02 0.02 0.02 0.02 0.02 0.02 0.03 0.03
0.06 0.07 0.07 0.07 0.07 0.06 0.04 0.04 0.03 0.04 0.11 0.16 0.11 0.13 0.12 0.10 0.07 0.04 0.03 0.03 0.03 0.02 0.02 0.03 0.05 0.05 0.05 0.05 0.05 0.05 0.04 0.04 0.03 0.03 0.02 0.03 0.02 0.01 0.01 0.01 0.02 0.03 0.02 0.02
0.05 0.06 0.05 0.05 0.05 0.04 0.03 0.03 0.04 0.04 0.06 0.07 0.07 0.09 0.11 0.10 0.08 0.06 0.05 0.04 0.02 0.02 0.02 0.03 0.03 0.04 0.05 0.06 0.05 0.05 0.03 0.03 0.02 0.02 0.02 0.02 0.01 0.01 0.01 0.02 0.02 0.02 0.02 0.03
0.03 0.02 0.01 0.02 0.02 0.02 0.04 0.05 0.05 0.06 0.06 0.06 0.07 0.09 0.09 0.08 0.08 0.07 0.06 0.05 0.04 0.03 0.02 0.02 0.02 0.03 0.03 0.03 0.04 0.04 0.03 0.03 0.02 0.01 0.01 0.01 0.01 0.01 0.02 0.02 0.02 0.03 0.03 0.03
0.03 0.02 0.01 0.01 0.02 0.03 0.05 0.06 0.06 0.06 0.06 0.07 0.08 0.08 0.08 0.08 0.08 0.08 0.07 0.06 0.03 0.02 0.01 0.01 0.02 0.03 0.04 0.04 0.04 0.05 0.06 0.06 0.04 0.02 0.02 0.01 0.01 0.01 0.01 0.02 0.02 0.02 0.02 0.02
0.03 0.03 0.02 0.02 0.03 0.05 0.08 0.07 0.06 0.07 0.07 0.07 0.07 0.08 0.08 0.08 0.08 0.08 0.06 0.04 0.04 0.02 0.01 0.01 0.03 0.03 0.03 0.03 0.02 0.04 0.04 0.04 0.04 0.04 0.04 0.02 0.01 0.01 0.02 0.02 0.02 0.02 0.02 0.01
0.04 0.03 0.03 0.03 0.03 0.05 0.07 0.10 0.09 0.07 0.07 0.07 0.06 0.05 0.05 0.07 0.08 0.08 0.07 0.05 0.06 0.04 0.03 0.02 0.02 0.02 0.03 0.02 0.03 0.03 0.04 0.04 0.03 0.04 0.04 0.03 0.03 0.02 0.02 0.02 0.02 0.02 0.01 0.00
0.04 0.03 0.03 0.03 0.04 0.05 0.06 0.08 0.12 0.10 0.08 0.08 0.07 0.05 0.04 0.05 0.07 0.12 0.12 0.06 0.06 0.05 0.04 0.04 0.03 0.03 0.03 0.04 0.05 0.05 0.06 0.06 0.05 0.04 0.03 0.03 0.03 0.02 0.02 0.02 0.01 0.02 0.01 0.01
0.05 0.05 0.04 0.04 0.05 0.06 0.05 0.05 0.07 0.09 0.08 0.07 0.06 0.04 0.03 0.03 0.04 0.06 0.09 0.07 0.06 0.04 0.03 0.04 0.04 0.05 0.06 0.08 0.08 0.08 0.08 0.07 0.06 0.04 0.03 0.03 0.03 0.03 0.02 0.02 0.02 0.02 0.02 0.01
0.07 0.05 0.04 0.05 0.05 0.05 0.05 0.05 0.05 0.06 0.06 0.05 0.03 0.03 0.03 0.03 0.03 0.03 0.03 0.04 0.05 0.05 0.07 0.08 0.08 0.08 0.09 0.08 0.06 0.06 0.06 0.05 0.05 0.04 0.04 0.04 0.03 0.02 0.02 0.02 0.02 0.02 0.02 0.02
MSLP
1004.00 1004.33 1004.77 1005.28 1005.82 1006.31 1006.66 1006.79 1006.65 1006.24 1005.56 1004.71 1003.76 1002.85 1002.07 1001.53 1001.26 1001.27 1001.54 1002.01 1002.59 1003.21 1003.81 1004.37 1004.87 1005.34 1005.80 1006.29 1006.84 1007.45 1008.12 1008.82 1009.52 1010.16 1010.72 1011.16 1011.47 1011.66 1011.72 1011.67 1011.51 1011.25 1010.88 1010.40
1003.90 1004.09 1004.32 1004.57 1004.82 1005.02 1005.13 1005.09 1004.89 1004.52 1003.99 1003.37 1002.72 1002.12 1001.63 1001.32 1001.23 1001.34 1001.64 1002.09 1002.63 1003.22 1003.81 1004.38 1004.93 1005.47 1006.01 1006.59 1007.20 1007.86 1008.55 1009.24 1009.91 1010.52 1011.05 1011.46 1011.76 1011.93 1011.99 1011.93 1011.75 1011.46 1011.05 1010.51
1003.87 1003.89 1003.90 1003.89 1003.86 1003.79 1003.67 1003.49 1003.23 1002.90 1002.52 1002.11 1001.72 1001.39 1001.17 1001.07 1001.12 1001.32 1001.65 1002.09 1002.60 1003.15 1003.73 1004.32 1004.91 1005.52 1006.14 1006.79 1007.46 1008.15 1008.85 1009.53 1010.16 1010.73 1011.22 1011.61 1011.89 1012.06 1012.13 1012.08 1011.92 1011.63 1011.21 1010.66
1003.87 1003.70 1003.48 1003.21 1002.92 1002.61 1002.30 1001.99 1001.69 1001.41 1001.15 1000.94 1000.78 1000.69 1000.69 1000.77 1000.96 1001.23 1001.60 1002.03 1002.53 1003.07 1003.64 1004.25 1004.89 1005.55 1006.23 1006.93 1007.64 1008.35 1009.04 1009.68 1010.28 1010.81 1011.26 1011.62 1011.90 1012.09 1012.18 1012.17 1012.05 1011.80 1011.41 1010.88
1003.90 1003.51 1003.05 1002.55 1002.02 1001.51 1001.03 1000.62 1000.29 1000.06 999.91 999.86 999.90 1000.02 1000.21 1000.46 1000.77 1001.13 1001.53 1001.99 1002.48 1003.03 1003.62 1004.25 1004.92 1005.62 1006.35 1007.08 1007.81 1008.51 1009.17 1009.78 1010.33 1010.82 1011.23 1011.58 1011.86 1012.07 1012.20 1012.24 1012.18 1012.00 1011.68 1011.20
1003.93 1003.33 1002.64 1001.92 1001.19 1000.50 999.90 999.41 999.07 998.88 998.83 998.92 999.13 999.42 999.78 1000.17 1000.60 1001.04 1001.51 1002.00 1002.52 1003.09 1003.70 1004.35 1005.05 1005.79 1006.54 1007.28 1008.01 1008.70 1009.33 1009.90 1010.40 1010.84 1011.23 1011.56 1011.85 1012.09 1012.26 1012.37 1012.38 1012.27 1012.03 1011.63
1004.00 1003.18 1002.29 1001.37 1000.47 999.65 998.95 998.41 998.07 997.91 997.95 998.16 998.50 998.93 999.43 999.96 1000.49 1001.03 1001.56 1002.10 1002.67 1003.26 1003.90 1004.58 1005.31 1006.06 1006.82 1007.56 1008.28 1008.94 1009.53 1010.07 1010.53 1010.94 1011.31 1011.64 1011.93 1012.20 1012.42 1012.57 1012.65 1012.61 1012.44 1012.13
1004.11 1003.10 1002.04 1000.96 999.94 999.02 998.25 997.68 997.34 997.22 997.32 997.61 998.05 998.60 999.21 999.85 1000.48 1001.10 1001.71 1002.31 1002.92 1003.55 1004.22 1004.92 1005.65 1006.41 1007.17 1007.90 1008.59 1009.23 1009.80 1010.31 1010.75 1011.15 1011.50 1011.83 1012.14 1012.42 1012.67 1012.86 1012.97 1012.99 1012.88 1012.64
1004.28 1003.12 1001.93 1000.75 999.64 998.66 997.85 997.26 996.92 996.83 996.97 997.31 997.83 998.45 999.14 999.86 1000.57 1001.27 1001.94 1002.59 1003.24 1003.91 1004.59 1005.30 1006.03 1006.78 1007.52 1008.24 1008.91 1009.54 1010.09 1010.59 1011.03 1011.43 1011.79 1012.13 1012.44 1012.73 1012.99 1013.19 1013.32 1013.36 1013.28 1013.09
1004.49 1003.24 1001.98 1000.75 999.60 998.59 997.77 997.18 996.84 996.75 996.91 997.28 997.83 998.49 999.23 1000.00 1000.77 1001.52 1002.23 1002.93 1003.60 1004.28 1004.97 1005.67 1006.38 1007.10 1007.82 1008.52 1009.18 1009.79 1010.35 1010.85 1011.31 1011.73 1012.11 1012.46 1012.78 1013.07 1013.32 1013.51 1013.63 1013.67 1013.60 1013.43
1004.73 1003.45 1002.18 1000.94 999.80 998.80 997.99 997.40 997.06 996.97 997.12 997.49 998.03 998.71 999.46 1000.25 1001.05 1001.82 1002.56 1003.27 1003.95 1004.63 1005.29 1005.96 1006.64 1007.33 1008.01 1008.68 1009.32 1009.93 1010.51 1011.03 1011.52 1011.97 1012.38 1012.75 1013.08 1013.37 1013.60 1013.77 1013.86 1013.87 1013.79 1013.63
1004.92 1003.69 1002.46 1001.28 1000.19 999.23 998.45 997.87 997.52 997.42 997.54 997.88 998.40 999.05 999.79 1000.58 1001.37 1002.15 1002.89 1003.60 1004.27 1004.91 1005.54 1006.17 1006.79 1007.43 1008.06 1008.70 1009.32 1009.93 1010.52 1011.08 1011.60 1012.09 1012.54 1012.93 1013.28 1013.56 1013.77 1013.91 1013.97 1013.95 1013.85 1013.68
1005.02 1003.89 1002.76 1001.68 1000.68 999.78 999.04 998.49 998.14 998.00 998.09 998.39 998.86 999.47 1000.17 1000.93 1001.71 1002.47 1003.20 1003.88 1004.52 1005.13 1005.71 1006.28 1006.84 1007.41 1007.99 1008.59 1009.19 1009.80 1010.40 1010.98 1011.54 1012.07 1012.55 1012.97 1013.33 1013.61 1013.81 1013.93 1013.97 1013.92 1013.81 1013.65
1004.96 1003.97 1003.00 1002.05 1001.16 1000.35 999.67 999.14 998.79 998.63 998.68 998.92 999.34 999.90 1000.56 1001.28 1002.02 1002.76 1003.47 1004.13 1004.73 1005.30 1005.82 1006.33 1006.83 1007.33 1007.86 1008.40 1008.97 1009.56 1010.17 1010.77 1011.36 1011.92 1012.43 1012.88 1013.25 1013.54 1013.75 1013.86 1013.88 1013.84 1013.73 1013.59
1004.70 1003.90 1003.10 1002.31 1001.55 1000.85 1000.24 999.74 999.40 999.22 999.23 999.42 999.78 1000.28 1000.89 1001.58 1002.29 1003.01 1003.69 1004.32 1004.90 1005.42 1005.90 1006.35 1006.79 1007.24 1007.70 1008.20 1008.73 1009.30 1009.89 1010.50 1011.10 1011.68 1012.21 1012.68 1013.08 1013.38 1013.60 1013.72 1013.77 1013.74 1013.66 1013.55
1004.25 1003.65 1003.04 1002.42 1001.80 1001.21 1000.68 1000.22 999.89 999.70 999.67 999.82 1000.13 1000.58 1001.16 1001.80 1002.49 1003.19 1003.85 1004.47 1005.03 1005.52 1005.97 1006.38 1006.77 1007.17 1007.58 1008.04 1008.53 1009.07 1009.64 1010.23 1010.83 1011.41 1011.96 1012.44 1012.85 1013.18 1013.41 1013.57 1013.64 1013.66 1013.63 1013.57
1003.62 1003.22 1002.80 1002.35 1001.88 1001.40 1000.94 1000.54 1000.22 1000.03 999.98 1000.09 1000.36 1000.78 1001.31 1001.93 1002.60 1003.28 1003.94 1004.55 1005.10 1005.59 1006.02 1006.41 1006.78 1007.14 1007.53 1007.94 1008.40 1008.91 1009.45 1010.02 1010.60 1011.17 1011.70 1012.19 1012.61 1012.95 1013.22 1013.40 1013.53 1013.59 1013.62 1013.63
1002.88 1002.66 1002.42 1002.12 1001.78 1001.41 1001.03 1000.68 1000.39 1000.20 1000.14 1000.22 1000.46 1000.84 1001.35 1001.95 1002.60 1003.26 1003.92 1004.54 1005.10 1005.59 1006.03 1006.42 1006.79 1007.15 1007.51 1007.91 1008.34 1008.82 1009.33 1009.86 1010.41 1010.95 1011.47 1011.94 1012.36 1012.71 1013.00 1013.22 1013.39 1013.50 1013.59 1013.66
1002.10 1002.04 1001.93 1001.76 1001.53 1001.25 1000.94 1000.63 1000.37 1000.20 1000.13 1000.20 1000.42 1000.78 1001.25 1001.83 1002.46 1003.12 1003.78 1004.40 1004.98 1005.50 1005.96 1006.37 1006.76 1007.13 1007.50 1007.89 1008.31 1008.76 1009.24 1009.74 1010.25 1010.75 1011.23 1011.68 1012.08 1012.42 1012.72 1012.96 1013.16 1013.33 1013.46 1013.58
1001.35 1001.39 1001.39 1001.31 1001.16 1000.95 1000.69 1000.44 1000.21 1000.05 999.99 1000.05 1000.25 1000.58 1001.03 1001.58 1002.19 1002.84 1003.50 1004.13 1004.72 1005.26 1005.76 1006.21 1006.63 1007.03 1007.42 1007.82 1008.24 1008.68 1009.13 1009.59 1010.05 1010.51 1010.94 1011.34 1011.71 1012.04 1012.33 1012.58 1012.79 1012.98 1013.15 1013.30
1000.69 1000.78 1000.83 1000.80 1000.70 1000.53 1000.33 1000.11 999.91 999.77 999.72 999.78 999.97 1000.28 1000.70 1001.22 1001.81 1002.44 1003.08 1003.71 1004.31 1004.88 1005.41 1005.90 1006.36 1006.80 1007.22 1007.64 1008.07 1008.49 1008.92 1009.34 1009.76 1010.16 1010.54 1010.89 1011.21 1011.50 1011.77 1012.01 1012.22 1012.41 1012.59 1012.75
1000.13 1000.23 1000.28 1000.27 1000.18 1000.04 999.86 999.68 999.51 999.39 999.36 999.42 999.60 999.90 1000.29 1000.78 1001.33 1001.93 1002.55 1003.18 1003.78 1004.37 1004.92 1005.44 1005.94 1006.42 1006.87 1007.31 1007.74 1008.16 1008.56 1008.95 1009.31 1009.66 1009.97 1010.27 1010.54 1010.78 1011.01 1011.23 1011.43 1011.61 1011.79 1011.95
999.70 999.75 999.77 999.73 999.64 999.51 999.35 999.19 999.05 998.97 998.95 999.02 999.20 999.48 999.85 1000.30 1000.82 1001.38 1001.97 1002.57 1003.17 1003.76 1004.33 1004.87 1005.40 1005.90 1006.38 1006.83 1007.26 1007.67 1008.04 1008.39 1008.70 1008.99 1009.24 1009.47 1009.69 1009.89 1010.08 1010.26 1010.44 1010.62 1010.79 1010.95
999.36 999.34 999.30 999.22 999.11 998.98 998.84 998.70 998.59 998.54 998.55 998.64 998.82 999.08 999.43 999.85 1000.33 1000.85 1001.40 1001.97 1002.55 1003.13 1003.69 1004.25 1004.78 1005.29 1005.78 1006.24 1006.66 1007.04 1007.38 1007.69 1007.95 1008.18 1008.37 1008.55 1008.71 1008.87 1009.02 1009.18 1009.35 1009.52 1009.68 1009.85
999.11 999.01 998.91 998.79 998.65 998.52 998.39 998.28 998.20 998.18 998.22 998.33 998.51 998.77 999.10 999.49 999.93 1000.41 1000.92 1001.46 1002.01 1002.56 1003.11 1003.65 1004.18 1004.69 1005.17 1005.61 1006.01 1006.36 1006.67 1006.92 1007.14 1007.31 1007.45 1007.58 1007.70 1007.82 1007.95 1008.10 1008.26 1008.43 1008.61 1008.79
998.96 998.79 998.63 998.48 998.33 998.19 998.08 997.99 997.95 997.96 998.03 998.16 998.36 998.61 998.92 999.29 999.69 1000.14 1000.61 1001.10 1001.62 1002.14 1002.66 1003.18 1003.69 1004.18 1004.63 1005.05 1005.41 1005.73 1005.99 1006.20 1006.37 1006.49 1006.59 1006.68 1006.77 1006.87 1006.99 1007.14 1007.31 1007.50 1007.71 1007.92
998.92 998.72 998.52 998.35 998.20 998.08 997.98 997.93 997.92 997.96 998.06 998.21 998.41 998.66 998.96 999.30 999.68 1000.08 1000.52 1000.98 1001.45 1001.94 1002.43 1002.92 1003.40 1003.86 1004.28 1004.66 1004.99 1005.26 1005.48 1005.65 1005.77 1005.85 1005.92 1005.98 1006.05 1006.14 1006.27 1006.43 1006.62 1006.85 1007.09 1007.35
Thickness
5773 5785 5789 5786 5786 5787 5776 5765 5754 5758 5762 5771 5779 5782 5784 5786 5787 5786 5786 5786 5784 5781 5778 5776 5775 5774 5772 5770 5768 5766 5762 5758 5756 5754 5753 5751 5748 5747 5745 5742 5741 5739 5737 5735
5767 5782 5783 5779 5784 5784 5779 5775 5769 5766 5764 5779 5782 5782 5780 5780 5782 5781 5782 5783 5782 5780 5777 5773 5771 5769 5766 5764 5762 5760 5757 5754 5753 5751 5748 5746 5744 5742 5740 5737 5736 5734 5732 5730
5743 5765 5768 5756 5772 5776 5773 5776 5772 5760 5766 5777 5775 5775 5775 5777 5779 5778 5779 5779 5777 5776 5774 5771 5768 5766 5762 5761 5758 5754 5751 5750 5748 5746 5743 5741 5740 5737 5734 5732 5730 5728 5727 5725
5733 5743 5731 5754 5781 5783 5773 5771 5775 5772 5772 5774 5772 5774 5777 5777 5775 5774 5775 5774 5772 5771 5769 5768 5765 5761 5758 5756 5752 5749 5745 5744 5742 5740 5737 5735 5733 5731 5729 5727 5724 5722 5721 5719
5721 5722 5732 5756 5772 5773 5762 5756 5770 5768 5768 5769 5771 5768 5765 5774 5774 5772 5772 5771 5769 5768 5766 5763 5758 5755 5751 5748 5746 5742 5739 5737 5736 5734 5731 5729 5727 5725 5724 5721 5718 5717 5715 5713
5719 5717 5715 5740 5770 5779 5766 5742 5764 5766 5763 5763 5761 5743 5747 5765 5767 5766 5766 5766 5763 5761 5758 5755 5752 5750 5746 5742 5738 5735 5734 5733 5731 5729 5727 5724 5721 5719 5717 5715 5712 5710 5709 5707
5713 5711 5720 5749 5768 5769 5735 5735 5760 5762 5760 5758 5751 5748 5754 5760 5760 5760 5758 5757 5755 5752 5748 5746 5745 5743 5737 5734 5732 5731 5730 5728 5725 5723 5720 5718 5715 5713 5710 5708 5705 5702 5700 5699
5704 5702 5711 5751 5756 5745 5742 5754 5757 5756 5756 5753 5751 5752 5751 5750 5750 5750 5748 5747 5747 5743 5739 5738 5737 5734 5729 5726 5726 5725 5723 5720 5717 5715 5713 5711 5707 5705 5702 5699 5696 5693 5691 5689
5709 5711 5729 5744 5748 5751 5752 5749 5750 5750 5751 5749 5744 5742 5742 5740 5740 5740 5739 5737 5737 5734 5730 5728 5727 5725 5720 5719 5719 5717 5714 5710 5708 5706 5704 5701 5698 5695 5693 5690 5686 5684 5682 5681
5707 5715 5725 5733 5739 5742 5744 5744 5746 5747 5745 5743 5738 5736 5733 5732 5730 5728 5728 5727 5726 5723 5719 5717 5717 5716 5714 5713 5711 5708 5704 5701 5698 5696 5693 5691 5689 5687 5684 5680 5677 5676 5674 5672
5695 5707 5714 5722 5727 5732 5736 5738 5738 5738 5737 5735 5732 5729 5727 5723 5721 5720 5719 5719 5717 5713 5709 5708 5708 5707 5706 5705 5702 5697 5694 5691 5689 5686 5684 5681 5680 5678 5676 5674 5672 5668 5666 5665
5687 5698 5699 5706 5719 5725 5726 5726 5727 5727 5725 5725 5724 5721 5719 5716 5714 5713 5711 5711 5708 5705 5702 5701 5700 5698 5698 5696 5693 5689 5685 5682 5680 5677 5675 5673 5670 5669 5669 5667 5665 5663 5661 5659
5694 5700 5702 5707 5713 5717 5717 5718 5719 5718 5716 5714 5714 5713 5711 5708 5706 5705 5703 5702 5699 5697 5695 5693 5692 5690 5690 5689 5686 5682 5678 5675 5672 5670 5667 5664 5662 5660 5657 5657 5656 5654 5653 5652
5695 5696 5694 5699 5702 5708 5710 5711 5711 5709 5708 5707 5704 5702 5701 5699 5698 5695 5694 5694 5692 5690 5687 5685 5684 5682 5682 5681 5678 5675 5671 5669 5666 5663 5660 5657 5654 5652 5649 5647 5645 5645 5645 5644
5688 5690 5689 5692 5695 5698 5700 5701 5698 5696 5696 5696 5695 5692 5691 5689 5687 5687 5687 5687 5684 5682 5679 5678 5675 5675 5676 5674 5671 5667 5664 5661 5659 5656 5653 5650 5647 5644 5641 5639 5637 5636 5635 5634
5680 5682 5683 5683 5684 5688 5689 5687 5686 5686 5686 5686 5685 5684 5683 5682 5680 5679 5679 5678 5674 5672 5671 5669 5668 5669 5669 5667 5664 5661 5658 5656 5653 5649 5646 5642 5639 5636 5633 5631 5628 5627 5626 5625
5670 5669 5671 5672 5675 5677 5677 5678 5677 5678 5679 5678 5678 5678 5676 5674 5671 5669 5670 5670 5668 5666 5666 5663 5662 5663 5662 5660 5657 5654 5651 5649 5646 5642 5638 5635 5632 5630 5627 5624 5621 5619 5617 5617
5669 5668 5668 5669 5669 5669 5669 5670 5671 5670 5670 5671 5671 5670 5668 5665 5662 5661 5662 5661 5659 5658 5658 5657 5657 5656 5654 5652 5649 5647 5643 5640 5637 5634 5631 5628 5626 5623 5620 5617 5614 5612 5611 5610
5664 5663 5663 5665 5664 5663 5663 5663 5664 5664 5665 5664 5663 5659 5657 5656 5656 5654 5654 5652 5650 5647 5649 5650 5650 5648 5646 5644 5642 5639 5636 5633 5630 5627 5624 5622 5619 5616 5613 5610 5608 5605 5604 5602
5657 5657 5658 5658 5658 5657 5657 5657 5658 5658 5658 5656 5653 5650 5649 5649 5649 5648 5646 5644 5643 5643 5644 5643 5642 5640 5638 5636 5634 5631 5629 5626 5623 5620 5617 5614 5612 5609 5606 5604 5601 5599 5597 5594
5647 5648 5649 5649 5650 5651 5651 5651 5650 5650 5650 5648 5645 5643 5643 5642 5642 5641 5638 5636 5638 5639 5638 5637 5635 5633 5631 5629 5627 5624 5622 5619 5616 5613 5610 5607 5604 5602 5599 5597 5594 5592 5590 5587
5640 5640 5641 5642 5641 5641 5642 5642 5642 5642 5641 5640 5639 5638 5637 5635 5635 5634 5633 5631 5632 5632 5631 5630 5628 5627 5624 5622 5619 5617 5615 5612 5610 5607 5604 5601 5598 5595 5593 5591 5588 5586 5583 5580
5634 5634 5634 5634 5633 5633 5635 5635 5635 5634 5633 5633 5632 5631 5629 5628 5627 5625 5624 5626 5626 5626 5625 5623 5622 5620 5618 5615 5613 5611 5609 5607 5605 5602 5598 5595 5592 5589 5587 5585 5582 5580 5577 5574
5628 5627 5627 5627 5628 5626 5625 5626 5628 5628 5628 5627 5626 5625 5624 5622 5621 5622 5623 5622 5620 5618 5617 5615 5614 5612 5611 5609 5607 5605 5603 5601 5598 5596 5592 5589 5586 5583 5581 5578 5576 5574 5571 5569
5623 5622 5621 5620 5618 5618 5618 5620 5620 5620 5621 5620 5620 5620 5620 5619 5617 5618 5618 5617 5615 5612 5610 5608 5606 5605 5604 5602 5600 5598 5596 5594 5591 5588 5586 5583 5580 5577 5574 5572 5569 5567 5565 5562
5618 5616 5615 5614 5613 5612 5612 5613 5612 5613 5614 5613 5613 5614 5613 5613 5613 5613 5612 5611 5608 5606 5604 5602 5600 5598 5596 5594 5592 5591 5589 5586 5584 5582 5579 5577 5574 5572 5569 5566 5564 5561 5558 5556
5612 5611 5609 5608 5608 5608 5608 5608 5607 5607 5607 5607 5607 5608 5608 5607 5607 5606 5605 5603 5601 5599 5598 5596 5594 5591 5588 5586 5585 5583 5582 5580 5578 5576 5573 5571 5568 5565 5563 5561 5558 5555 5552 5549